Regional Weather Roundup
Issued by NWS

Home | Current Version | Previous Version | Text Only | Print | Product List | Glossary Off
Versions: 1 2 3 4 5 6 7 8 9 10 11 12 13 14 15 16 17 18 19 20 21 22 23 24 25 26 27 28 29 30 31 32 33 34 35 36 37 38 39 40 41 42 43 44 45 46 47 48 49 50

000
ASUS44 KMEG 221800
RWRTN
TENNESSEE HOURLY STATE WEATHER ROUNDUP
NATIONAL WEATHER SERVICE MEMPHIS TN
100 PM CDT MON MAY 22 2017

TNZ002-004-019-021-049-052-054-088>092-221900-
WEST TENNESSEE

CITY           SKY/WX    TMP DP  RH WIND       PRES   REMARKS
MEMPHIS INTL   CLOUDY    73  52  47 VRB5      30.08S
NWS MEMPHIS      N/A     70 N/A N/A MISG        N/A
JACKSON        CLOUDY    72  50  45 E6        30.09F
DYERSBURG      CLOUDY    71  51  49 E5        30.10F
$$

TNZ008-025-027-028-033-062-065-066-221900-
NORTH MIDDLE TENNESSEE

CITY           SKY/WX    TMP DP  RH WIND       PRES   REMARKS
NASHVILLE      PTSUNNY   73  50  44 NE7       30.11F
CLARKSVILLE    MOSUNNY   71  47  42 E9        30.10F
SMYRNA         PTSUNNY   72  54  53 N6        30.10F
CROSSVILLE     CLOUDY    69  56  62 VRB6      30.10F
$$

TNZ061-075-076-078-094-096-097-221900-
SOUTH MIDDLE TENNESSEE

CITY           SKY/WX    TMP DP  RH WIND       PRES   REMARKS
TULLAHOMA      MOSUNNY   72  55  56 N6        30.09F
WINCHESTER     SUNNY     73  61  64 N5        30.07F
$$

TNZ017-018-042-046-047-221900-
NORTHEAST TENNESSEE

CITY           SKY/WX    TMP DP  RH WIND       PRES   REMARKS
TRI CITIES     CLOUDY    73  62  68 NW9       30.08F
$$

TNZ012-013-036-069-073-074-221900-
CENTRAL EAST TENNESSEE

CITY           SKY/WX    TMP DP  RH WIND       PRES   REMARKS
KNOXVILLE      CLOUDY    71  59  65 VRB7      30.06F
OAK RIDGE      PTSUNNY   71  57  61 E7        30.08F
GATLINBURG     CLOUDY    70  61  73 CALM      30.06F
$$

TNZ083-085-099-221900-
SOUTHEAST TENNESSEE

CITY           SKY/WX    TMP DP  RH WIND       PRES   REMARKS
CHATTANOOGA    CLOUDY    75  61  61 N9        30.05F
$$

SKY/WX REPORTED AS FAIR MEANS FEW OR NO CLOUDS BELOW
12 THOUSAND FEET.





USA.gov is the U.S. government's official web portal to all federal, state and local government web resources and services.